Weather reports worldwide

Advertisment
Inverbervie, United Kingdom (3088): temperature & dewpoint: 18.06.2017 04:00:00 - 24.06.2017 04:00:00 (BST)Inverbervie, United Kingdom (3088): temperature 5cm: 18.06.2017 04:00:00 - 24.06.2017 04:00:00 (BST)Inverbervie, United Kingdom (3088): temperature -20cm & temperature -100cm: 18.06.2017 04:00:00 - 24.06.2017 04:00:00 (BST)Inverbervie, United Kingdom (3088): wind speed & gusts: 18.06.2017 04:00:00 - 24.06.2017 04:00:00 (BST)Inverbervie, United Kingdom (3088): wind direction: 18.06.2017 04:00:00 - 24.06.2017 04:00:00 (BST)Inverbervie, United Kingdom (3088): reduced air pressure: 18.06.2017 04:00:00 - 24.06.2017 04:00:00 (BST)Inverbervie, United Kingdom (3088): visibility: 18.06.2017 04:00:00 - 24.06.2017 04:00:00 (BST)Inverbervie, United Kingdom (3088): precipitation: 18.06.2017 04:00:00 - 24.06.2017 04:00:00 (BST)
Date & Time tt [°C] td [°C] tt 5cm [°C] tt -20cm [°C] tt -100cm [°C] ff [km/h] ff [kn] fx [km/h] fx [kn] dd ppp [hPa] vv [km] rr [mm]
24.06.2017 04:00:00 8,8 7,0 - - - 28 15 - - SW 1005,0 29 0,0
24.06.2017 03:00:00 9,0 6,0 - - - 18 10 - - SSW 1005,5 45 0,0
24.06.2017 02:00:00 9,5 6,2 - - - 24 13 - - SW 1005,7 35 0,0
24.06.2017 01:00:00 10,0 6,4 - - - 35 19 - - WSW 1005,5 45 0,0
24.06.2017 00:00:00 10,1 6,6 - - - 28 15 - - WSW 1005,7 50 0,0
23.06.2017 23:00:00 10,6 5,2 - - - 15 8 46 25 WNW 1006,2 50 0,0
23.06.2017 22:00:00 11,9 5,1 - - - 29 16 50 27 W 1005,6 50 0,0
23.06.2017 21:00:00 13,6 6,0 - - - 31 17 - - WSW 1005,4 45 0,0
23.06.2017 20:00:00 15,5 6,1 - - - 31 17 46 25 WSW 1005,3 50 0,0
23.06.2017 19:00:00 17,7 8,0 - - - 28 15 - - WSW 1004,8 50 0,0
23.06.2017 18:00:00 18,2 7,4 - - - 28 15 48 26 W 1004,4 45 0,0
23.06.2017 17:00:00 18,5 7,7 - - - 34 18 52 28 WSW 1004,5 45 0,0
23.06.2017 16:00:00 18,6 8,1 - - - 35 19 59 32 W 1004,1 40 0,0
23.06.2017 15:00:00 18,5 8,4 - - - 31 17 52 28 W 1003,7 30 0,0
23.06.2017 14:00:00 19,1 10,3 - - - 31 17 65 35 W 1003,3 50 0,0
23.06.2017 13:00:00 17,3 10,5 - - - 37 20 59 32 W 1002,7 40 0,0
23.06.2017 12:00:00 17,0 12,1 - - - 37 20 52 28 WSW 1001,9 35 0,0
23.06.2017 11:00:00 14,6 14,1 - - - 35 19 52 28 SSW 1002,0 29 0,0
23.06.2017 10:00:00 12,7 12,6 - 14,4 12,7 37 20 59 32 SSW 1002,3 7 0,0
23.06.2017 09:00:00 12,7 12,4 - - - 48 26 57 31 SSW 1001,9 22 0,0
23.06.2017 08:00:00 12,8 12,3 - - - 35 19 57 31 SSW 1002,6 11 0,0
23.06.2017 07:00:00 12,1 11,7 - - - 42 23 57 31 SW 1002,4 15 0,0
23.06.2017 06:00:00 11,3 10,9 - - - 37 20 52 28 SW 1002,8 14 0,0
23.06.2017 05:00:00 11,5 10,9 - - - 37 20 52 28 SW 1003,2 19 0,0
23.06.2017 04:00:00 11,0 10,8 - - - 29 16 - - SW 1003,8 9 0,2
23.06.2017 03:00:00 10,9 10,5 - - - 16 9 - - SSW 1005,1 13 0,0
23.06.2017 02:00:00 11,3 10,8 - - - 26 14 - - SW 1006,2 22 1,8
23.06.2017 01:00:00 11,5 11,2 - - - 21 11 - - SW 1006,7 15 0,0
23.06.2017 00:00:00 11,6 11,3 - - - 18 10 - - SW 1006,7 14 0,0
22.06.2017 23:00:00 11,4 10,7 - - - 8 4 - - SW 1007,3 11 0,2
22.06.2017 22:00:00 11,5 10,5 - - - 11 6 - - SSW 1007,8 19 0,0
22.06.2017 21:00:00 11,6 10,1 - - - 11 6 - - SW 1008,3 13 0,0
22.06.2017 20:00:00 11,8 10,0 - - - 11 6 - - SW 1008,7 35 0,0
22.06.2017 19:00:00 12,0 10,6 - - - 9 5 - - S 1008,7 25 0,0
22.06.2017 18:00:00 11,9 10,4 - - - 5 3 - - SSE 1009,1 35 0,0
22.06.2017 17:00:00 12,5 10,9 - - - 5 3 - - ESE 1008,8 26 0,0
22.06.2017 16:00:00 12,2 11,0 - - - 9 5 - - E 1009,1 20 0,0
22.06.2017 15:00:00 12,9 11,5 - - - 15 8 - - E 1009,0 24 0,0
22.06.2017 14:00:00 12,1 11,5 - - - 16 9 - - ENE 1009,1 7 0,0
22.06.2017 13:00:00 12,5 11,9 - - - 24 13 - - NE 1008,7 11 0,0
22.06.2017 12:00:00 12,6 12,5 - - - 26 14 - - NE 1008,7 9 0,0
22.06.2017 11:00:00 12,4 12,2 - - - 28 15 - - NE 1008,5 6 0,0
22.06.2017 10:00:00 13,1 12,8 - 14,7 12,5 26 14 - - NE 1007,8 4,6 0,0
22.06.2017 09:00:00 15,6 13,8 - - - 28 15 - - NNE 1007,1 50 0,0
22.06.2017 08:00:00 14,9 14,3 - - - 24 13 - - N 1006,9 22 0,0
22.06.2017 07:00:00 14,6 14,6 - - - 18 10 - - N 1006,7 14 0,0
22.06.2017 06:00:00 14,9 14,9 - - - 15 8 - - N 1006,5 9 0,0
22.06.2017 05:00:00 15,6 15,6 - - - 15 8 - - N 1006,4 9 0,0
22.06.2017 04:00:00 15,1 15,1 - - - 11 6 - - NW 1006,4 3,9 0,0
22.06.2017 03:00:00 14,5 14,5 - - - 9 5 - - WNW 1006,8 2,9 0,0
22.06.2017 02:00:00 13,8 13,8 - - - 8 4 - - W 1007,1 0,4 0,0
22.06.2017 01:00:00 13,4 13,4 - - - 11 6 - - NW 1007,5 0,3 0,0
22.06.2017 00:00:00 12,3 12,3 - - - 11 6 - - S 1008,1 0,1 0,0
21.06.2017 23:00:00 12,4 12,4 - - - 15 8 - - SSE 1008,7 - 0,0
21.06.2017 22:00:00 12,6 12,6 - - - 5 3 - - S 1009,8 - 3,2
21.06.2017 21:00:00 12,6 12,6 - - - 8 4 - - S 1009,5 0,1 0,8
21.06.2017 20:00:00 13,1 13,1 - - - 5 3 - - S 1010,7 0,1 0,0
21.06.2017 19:00:00 13,0 13,0 - - - 13 7 - - SSW 1011,4 0,1 1,2
21.06.2017 18:00:00 12,7 12,7 - - - 13 7 - - SW 1011,1 0,1 0,0
21.06.2017 17:00:00 12,3 12,3 - - - 16 9 - - S 1011,1 - 0,4
21.06.2017 16:00:00 12,9 12,9 - - - 13 7 - - S 1012,4 0,1 0,0
21.06.2017 15:00:00 13,4 13,4 - - - 13 7 - - SSW 1012,7 0,1 1,0
21.06.2017 14:00:00 11,9 11,9 - - - 15 8 - - SSW 1013,5 - 1,2
21.06.2017 13:00:00 12,0 11,8 - - - 16 9 - - S 1013,9 1,1 0,0
21.06.2017 12:00:00 12,1 11,5 - - - 21 11 - - S 1014,1 8 0,0
21.06.2017 11:00:00 13,5 12,2 - - - 16 9 - - SSE 1014,6 14 0,0
21.06.2017 10:00:00 12,5 11,5 12,5 14,9 12,4 28 15 - - SSE 1014,9 14 0,0
21.06.2017 09:00:00 12,1 11,3 - - - 18 10 - - SSE 1016,1 18 0,0
21.06.2017 08:00:00 12,0 11,5 - - - 18 10 - - SE 1016,7 14 0,0
21.06.2017 07:00:00 12,0 11,6 - - - 15 8 - - SSE 1017,3 12 0,0
21.06.2017 06:00:00 11,7 11,6 - - - 8 4 - - S 1017,8 12 0,0
21.06.2017 05:00:00 11,5 11,4 - - - 18 10 - - SSE 1018,2 10 0,0
21.06.2017 04:00:00 11,5 11,4 - - - 21 11 - - SE 1018,6 6 0,0
21.06.2017 03:00:00 11,6 11,4 - - - 18 10 - - SE 1019,5 11 0,0
21.06.2017 02:00:00 11,3 10,9 - - - 18 10 - - SE 1019,9 18 0,0
21.06.2017 01:00:00 11,5 10,7 - - - 21 11 - - SE 1020,5 30 0,0
21.06.2017 00:00:00 11,1 10,7 - - - 13 7 - - SE 1021,3 27 0,0
20.06.2017 23:00:00 10,4 9,9 - - - 11 6 - - SE 1021,8 21 0,0
20.06.2017 22:00:00 10,7 9,9 - - - 9 5 - - ESE 1022,2 40 0,0
20.06.2017 21:00:00 10,9 9,3 - - - 9 5 - - SE 1022,2 29 0,0
20.06.2017 20:00:00 11,9 9,5 - - - 11 6 - - SE 1022,1 25 0,0
20.06.2017 19:00:00 12,1 9,3 - - - 11 6 - - ESE 1022,0 30 0,0
20.06.2017 18:00:00 12,3 9,2 - - - 13 7 - - SSE 1022,4 30 0,0
20.06.2017 17:00:00 13,2 8,8 - - - 15 8 - - SSE 1022,6 50 0,0
20.06.2017 16:00:00 13,4 9,4 - - - 16 9 - - SSE 1023,1 30 0,0
20.06.2017 15:00:00 14,5 11,1 - - - 16 9 - - S 1023,2 40 0,0
20.06.2017 14:00:00 13,6 9,5 - - - 16 9 - - SSE 1023,2 30 0,0
20.06.2017 13:00:00 12,7 8,9 - - - 16 9 - - SSE 1023,4 27 0,0
20.06.2017 12:00:00 12,5 8,6 - - - 15 8 - - E 1023,4 26 0,0
20.06.2017 11:00:00 14,4 9,1 - - - 13 7 - - E 1023,1 35 0,0
20.06.2017 10:00:00 13,0 7,5 13,5 14,7 12,2 8 4 - - E 1023,1 30 0,0
20.06.2017 09:00:00 12,5 7,6 - - - 13 7 - - NNW 1023,0 35 0,0
20.06.2017 08:00:00 11,1 6,9 - - - 15 8 - - NW 1022,9 30 0,0
20.06.2017 07:00:00 10,7 7,2 - - - 15 8 - - NNW 1022,5 35 0,0
20.06.2017 06:00:00 10,4 8,1 - - - 11 6 - - NNW 1022,3 30 0,0
20.06.2017 05:00:00 10,4 8,3 - - - 11 6 - - N 1022,1 45 0,0
20.06.2017 04:00:00 10,7 9,9 - - - 11 6 - - ENE 1022,1 29 0,0
20.06.2017 03:00:00 11,6 10,4 - - - 8 4 - - N 1022,1 30 0,0
20.06.2017 02:00:00 11,3 10,4 - - - 5 3 - - NNW 1022,1 40 0,0
20.06.2017 01:00:00 11,4 10,4 - - - 4 2 - - NNW 1022,0 40 0,0
20.06.2017 00:00:00 11,3 10,4 - - - 9 5 - - SW 1022,0 40 0,0
19.06.2017 23:00:00 11,3 10,5 - - - 8 4 - - SSW 1021,7 40 0,0
19.06.2017 22:00:00 10,9 10,2 - - - 4 2 - - S 1021,5 40 0,0
19.06.2017 21:00:00 11,6 10,6 - - - 5 3 - - NE 1020,9 35 0,0
19.06.2017 20:00:00 11,7 10,9 - - - 5 3 - - E 1020,5 35 0,0
19.06.2017 19:00:00 12,0 11,7 - - - 11 6 - - E 1020,0 18 0,0
19.06.2017 18:00:00 11,4 11,2 - - - 16 9 - - ENE 1019,7 5 0,0
19.06.2017 17:00:00 11,8 11,3 - - - 22 12 - - ENE 1019,5 25 0,0
19.06.2017 16:00:00 12,2 11,1 - - - 26 14 - - ENE 1019,3 50 0,0
19.06.2017 15:00:00 14,5 12,0 - - - 24 13 - - NE 1018,7 45 0,0
19.06.2017 14:00:00 14,9 12,6 - - - 28 15 - - NE 1018,6 28 0,0
19.06.2017 13:00:00 14,3 12,8 - - - 21 11 - - NE 1018,7 30 0,0
19.06.2017 12:00:00 17,5 15,0 - - - 8 4 - - SSW 1018,2 50 0,0
19.06.2017 11:00:00 16,5 14,6 - - - 15 8 - - SSW 1018,0 29 0,0
19.06.2017 10:00:00 16,6 14,0 17,1 14,7 12,0 11 6 - - SSW 1018,2 28 0,0
19.06.2017 09:00:00 14,7 12,9 - - - 11 6 - - SSW 1018,5 26 0,0
19.06.2017 08:00:00 13,8 12,5 - - - 9 5 - - S 1019,0 30 0,0
19.06.2017 07:00:00 13,4 12,1 - - - 4 2 - - S 1019,4 35 0,0
19.06.2017 06:00:00 13,0 11,5 - - - 4 2 - - E 1019,7 50 0,0
19.06.2017 05:00:00 12,5 11,4 - - - 4 2 - - NNW 1020,1 35 0,0
19.06.2017 04:00:00 12,2 11,3 - - - 5 3 - - NW 1020,6 35 0,0
19.06.2017 03:00:00 12,2 10,8 - - - 9 5 - - ENE 1020,8 40 0,0
19.06.2017 02:00:00 12,8 11,1 - - - 11 6 - - E 1021,2 40 0,0
19.06.2017 01:00:00 12,0 11,3 - - - 16 9 - - ENE 1021,5 30 0,0
19.06.2017 00:00:00 12,7 10,7 - - - 21 11 - - ENE 1021,9 50 0,0
18.06.2017 23:00:00 13,0 11,3 - - - 21 11 - - NE 1021,7 35 0,0
18.06.2017 22:00:00 13,7 11,8 - - - 22 12 - - NE 1021,3 45 0,0
18.06.2017 21:00:00 13,4 11,9 - - - 22 12 - - NE 1020,9 45 0,0
18.06.2017 20:00:00 14,2 11,9 - - - 28 15 - - NE 1020,8 40 0,0
18.06.2017 19:00:00 15,0 11,8 - - - 26 14 - - NE 1020,6 30 0,0
18.06.2017 18:00:00 17,2 13,7 - - - 16 9 - - NE 1020,0 35 0,0
18.06.2017 17:00:00 23,9 16,2 - - - 24 13 - - WSW 1019,3 40 0,0
18.06.2017 16:00:00 23,7 16,0 - - - 31 17 46 25 WSW 1019,0 25 0,0
18.06.2017 15:00:00 23,3 14,8 - - - 31 17 46 25 WSW 1019,2 50 0,0
18.06.2017 14:00:00 23,1 16,2 - - - 29 16 - - WSW 1019,4 35 0,0
18.06.2017 13:00:00 18,9 14,6 - - - 21 11 - - SSW 1019,9 45 0,0
18.06.2017 12:00:00 19,9 15,8 - - - 18 10 - - SSW 1019,9 40 0,0
18.06.2017 11:00:00 19,6 15,6 - - - 28 15 - - SSW 1020,2 30 0,0
18.06.2017 10:00:00 17,9 15,6 17,9 14,2 11,7 22 12 - - S 1020,2 30 0,0
18.06.2017 09:00:00 13,5 12,4 - - - 15 8 - - ESE 1020,5 8 0,0
18.06.2017 08:00:00 16,3 14,5 - - - 9 5 - - S 1020,1 35 0,0
18.06.2017 07:00:00 15,3 14,3 - - - 13 7 - - SSW 1020,0 40 0,0
18.06.2017 06:00:00 13,0 12,2 - - - 8 4 - - S 1019,9 5 0,0
18.06.2017 05:00:00 15,0 14,4 - - - 26 14 46 25 SW 1019,4 26 0,0
18.06.2017 04:00:00 15,6 14,7 - - - 37 20 48 26 WSW 1019,3 27 0,0

tt = temperature
td = dewpoint
tt 5cm = temperature 5cm
tt -20cm = temperature -20cm
tt -100cm = temperature -100cm
ff = wind speed
fx = gusts
dd = wind direction
ppp = reduced air pressure
vv = visibility
rr = precipitation

Next stations